Location: Unspecified
(0.0000°N, 0.0000°E)
Time: 10:45:23
(UTC+00:00)

Vanguard 3 - All Passes

Search period start: 18 July 2018 00:00
Search period end: 28 July 2018 00:00
Orbit: 508 x 3264 km, 33.3° (Epoch: 17 July)

Date Brightness Start Highest point End Pass type
(mag) Time Alt. Az. Time Alt. Az. Time Alt. Az.
18 Jul - 01:10:40 10° N 01:12:35 13° NE 01:14:37 10° ENE night (unlit)
18 Jul - 03:19:58 10° WNW 03:23:53 44° SSW 03:29:46 10° SE visible
18 Jul - 05:35:21 10° SW 05:38:02 12° SSW 05:41:14 10° S visible
18 Jul - 10:05:52 10° SSW 10:16:37 20° SSE 10:29:15 10° ESE daylight
18 Jul - 12:18:16 10° SW 12:36:07 47° SSE 12:53:35 10° ENE daylight
18 Jul - 14:33:34 10° WSW 14:53:54 82° NW 15:09:12 10° NE daylight
18 Jul - 16:54:48 10° W 17:09:45 32° NW 17:20:09 10° NNE daylight
19 Jul - 02:06:42 10° NW 02:10:21 65° NE 02:15:03 10° ESE night (unlit)
19 Jul - 04:19:35 10° WSW 04:22:51 17° SSW 04:27:08 10° SSE visible
19 Jul - 08:52:53 10° S 08:58:28 13° SSE 09:04:54 10° SE daylight
19 Jul - 11:03:33 10° SSW 11:18:19 33° SSE 11:34:58 10° E daylight
19 Jul - 13:16:59 10° SW 13:36:43 74° SE 13:54:05 10° ENE daylight
19 Jul - 15:34:49 10° WSW 15:53:36 51° NW 16:07:04 10° NE daylight
19 Jul - 18:01:38 10° WNW 18:09:33 16° NNW 18:15:49 10° N daylight
20 Jul - 00:54:16 10° NNW 00:57:01 19° NE 00:59:52 10° E night (unlit)
20 Jul - 03:04:58 10° W 03:08:28 29° SSW 03:13:13 10° SSE visible
20 Jul - 09:49:46 10° SSW 10:00:32 22° SSE 10:13:39 10° ESE daylight
20 Jul - 12:01:33 10° SW 12:19:12 53° SE 12:37:32 10° ENE daylight
20 Jul - 14:16:45 10° WSW 14:36:51 74° NW 14:53:00 10° NE daylight
20 Jul - 16:38:32 10° W 16:53:19 29° NW 17:04:05 10° NNE daylight
21 Jul - 01:51:13 10° WNW 01:54:50 81° SW 01:59:13 10° SE night (unlit)
21 Jul - 04:06:17 10° SSW 04:07:33 11° SSW 04:08:57 10° S visible
21 Jul - 08:37:28 10° S 08:42:52 13° SSE 08:49:08 10° SE daylight
21 Jul - 10:47:06 10° SSW 11:01:42 36° SSE 11:19:01 10° E daylight
21 Jul - 13:00:15 10° SW 13:19:36 81° SE 13:37:51 10° ENE daylight
21 Jul - 15:18:15 10° WSW 15:36:46 46° NW 15:50:53 10° NNE daylight
21 Jul - 17:46:04 10° WNW 17:53:40 15° NNW 17:59:50 10° N daylight
22 Jul - 00:38:06 10° NNW 00:41:30 29° NE 00:44:48 10° E night (unlit)
22 Jul - 02:50:14 10° WSW 02:53:05 19° SSW 02:56:33 10° SSE night (unlit)
22 Jul - 09:33:37 10° SSW 09:44:21 23° SSE 09:57:55 10° ESE daylight
22 Jul - 11:44:59 10° SW 12:02:11 59° SE 12:21:16 10° ENE daylight
22 Jul - 14:00:07 10° WSW 14:19:46 67° NW 14:36:41 10° NE daylight
22 Jul - 16:22:28 10° W 16:36:55 26° NNW 16:47:57 10° NNE daylight
22 Jul - 23:26:03 10° N 23:27:39 12° NNE 23:29:08 10° NE night (unlit)
23 Jul - 01:35:47 10° WNW 01:39:22 50° SW 01:43:18 10° SE night (unlit)
23 Jul - 08:21:47 10° S 08:27:11 13° SSE 08:33:33 10° SE daylight
23 Jul - 10:30:44 10° SSW 10:44:59 40° SE 11:02:51 10° E daylight
23 Jul - 12:43:41 10° SW 13:02:26 89° SE 13:21:25 10° NE daylight
23 Jul - 15:01:54 10° W 15:19:57 41° NW 15:34:34 10° NNE daylight
23 Jul - 17:30:32 10° NW 17:37:50 14° NNW 17:43:56 10° N daylight
24 Jul - 00:22:04 10° NW 00:26:03 45° NE 00:29:34 10° ESE night (unlit)
24 Jul - 02:36:02 10° SW 02:37:41 12° SSW 02:39:28 10° S night (unlit)
24 Jul - 09:17:29 10° SSW 09:28:06 25° SSE 09:42:02 10° E daylight
24 Jul - 11:28:33 10° SW 11:45:09 65° SE 12:04:48 10° ENE daylight
24 Jul - 13:43:41 10° WSW 14:02:42 60° NW 14:20:12 10° NE daylight
24 Jul - 16:06:33 10° WNW 16:20:36 24° NNW 16:31:48 10° NNE daylight
24 Jul - 23:08:47 10° NNW 23:12:16 18° NNE 23:15:06 10° ENE night (unlit)
25 Jul - 01:20:30 10° W 01:23:54 31° SW 01:27:20 10° SSE night (unlit)
25 Jul - 08:05:54 10° S 08:11:24 14° SSE 08:18:03 10° SE daylight
25 Jul - 10:14:28 10° SSW 10:28:13 44° SE 10:46:29 10° ENE daylight
25 Jul - 12:27:17 10° WSW 12:45:17 83° NW 13:04:49 10° NE daylight
25 Jul - 14:45:44 10° W 15:03:12 38° NNW 15:18:10 10° NNE daylight
25 Jul - 17:14:56 10° NW 17:22:06 14° NNW 17:28:11 10° N daylight
25 Jul - 21:56:21 10° N 21:57:44 11° NNE 21:59:00 10° NNE visible
26 Jul - 00:06:06 10° NW 00:10:35 74° NE 00:14:13 10° ESE night (unlit)
26 Jul - 09:01:23 10° SSW 09:11:45 27° SE 09:25:58 10° E daylight
26 Jul - 11:12:15 10° SW 11:28:04 72° SE 11:48:09 10° ENE daylight
26 Jul - 13:27:26 10° WSW 13:45:40 54° NW 14:03:36 10° NE daylight
26 Jul - 15:50:48 10° WNW 16:04:23 22° NNW 16:15:36 10° NNE daylight
26 Jul - 22:52:02 10° NNW 22:56:53 28° NNE 23:00:25 10° E visible
27 Jul - 01:05:20 10° W 01:08:23 21° SW 01:11:17 10° SSE night (unlit)
27 Jul - 07:49:55 10° S 07:55:34 14° SSE 08:02:32 10° ESE daylight
27 Jul - 09:58:17 10° SSW 10:11:25 49° SE 10:29:56 10° ENE daylight
27 Jul - 12:11:03 10° WSW 12:28:10 76° NW 12:48:03 10° NE daylight
27 Jul - 14:29:48 10° W 14:46:34 34° NNW 15:01:40 10° NNE daylight
27 Jul - 16:59:13 10° NW 17:06:27 13° NNW 17:12:40 10° N daylight
27 Jul - 21:38:02 10° NNW 21:42:25 17° NNE 21:45:46 10° ENE visible
27 Jul - 23:50:09 10° WNW 23:55:04 72° SW 23:58:47 10° SE night (unlit)
